,,,PA_Meas_PMT16A,,PR_Meas_QMR101_102,,RH_Meas_QMH101,,SR_Meas_QMS101,,TA_Meas_QMH101,,GenWind,,GenWind,
date,time,status,PA,status,PR,status,RH,status,SR,status,TA,status,DirAvg,status,SpdAvg,
2011-02-03, 00:00:05,VALID,1003.47,VALID,0,VALID,81.7892,VALID,0,VALID,26.0381,VALID,20,VALID,1.7293,
2011-02-03, 00:01:05,VALID,1003.44,VALID,0,VALID,81.6748,VALID,0,VALID,26.0381,VALID,66,VALID,1.1668,
2011-02-03, 00:02:05,VALID,1003.46,VALID,0,VALID,81.4002,VALID,0,VALID,25.9972,VALID,30,VALID,1.85156,
2011-02-03, 00:03:05,VALID,1003.47,VALID,0,VALID,81.6748,VALID,0,VALID,26.0381,VALID,22,VALID,1.53203,
2011-02-03, 00:04:05,VALID,1003.46,VALID,0,VALID,82.0333,VALID,0,VALID,26.0401,VALID,5,VALID,0.948438,
2011-02-03, 00:05:05,VALID,1003.43,VALID,0,VALID,81.5604,VALID,0,VALID,25.9992,VALID,9,VALID,1.23281,
2011-02-03, 00:06:05,VALID,1003.37,VALID,0,VALID,81.5375,VALID,0,VALID,26.0187,VALID,24,VALID,1.02031,
2011-02-03, 00:07:05,VALID,1003.35,VALID,0,VALID,81.4459,VALID,0,VALID,25.9797,VALID,18,VALID,1.41094,
2011-02-03, 00:08:05,VALID,1003.32,VALID,0,VALID,81.9952,VALID,0,VALID,25.9602,VALID,42,VALID,1.47852,
2011-02-03, 00:09:05,VALID,1003.3,VALID,0,VALID,82.2393,VALID,0.100563,VALID,25.9602,VALID,18,VALID,2.06328,
2011-02-03, 00:10:05,VALID,1003.25,VALID,0,VALID,82.4835,VALID,0,VALID,25.9622,VALID,3,VALID,1.37266,
2011-02-03, 00:11:05,VALID,1003.24,VALID,0,VALID,83.0098,VALID,0,VALID,25.9038,VALID,26,VALID,1.8293,
2011-02-03, 00:12:05,VALID,1003.19,VALID,0,VALID,83.6125,VALID,0,VALID,25.8648,VALID,15,VALID,1.26328,
2011-02-03, 00:13:04,VALID,1003.16,VALID,0,VALID,83.8185,VALID,0,VALID,25.8453,VALID,17,VALID,2.15469,
2011-02-03, 00:14:04,VALID,1003.17,VALID,0,VALID,84.2228,VALID,0,VALID,25.8453,VALID,11,VALID,1.56016,
2011-02-03, 00:15:04,VALID,1003.15,VALID,0,VALID,84.0169,VALID,0,VALID,25.8453,VALID,8,VALID,1.80117,
2011-02-03, 00:16:04,VALID,1003.12,VALID,0,VALID,84.528,VALID,0,VALID,25.8259,VALID,28,VALID,0.855859,
2011-02-03, 00:17:04,VALID,1003.15,VALID,0,VALID,84.9934,VALID,0,VALID,25.8064,VALID,2,VALID,1.42227,
2011-02-03, 00:18:04,VALID,1003.17,VALID,0,VALID,84.467,VALID,0,VALID,25.8083,VALID,31,VALID,1.90156,
2011-02-03, 00:19:04,VALID,1003.16,VALID,0,VALID,85.1765,VALID,0,VALID,25.7674,VALID,13,VALID,1.48633,
2011-02-03, 00:20:04,VALID,1003.19,VALID,0,VALID,85.6647,VALID,0,VALID,25.7285,VALID,4,VALID,1.40742,
2011-02-03, 00:21:04,VALID,1003.16,VALID,0,VALID,85.8325,VALID,0,VALID,25.6895,VALID,18,VALID,1.11602,
2011-02-03, 00:22:04,VALID,1003.16,VALID,0,VALID,86.2369,VALID,0,VALID,25.6506,VALID,27,VALID,1.93438,
2011-02-03, 00:23:04,VALID,1003.17,VALID,0,VALID,86.8929,VALID,0,VALID,25.6116,VALID,8,VALID,1.39922,
2011-02-03, 00:24:04,VALID,1003.19,VALID,0,VALID,86.954,VALID,0,VALID,25.5727,VALID,16,VALID,1.47148,
2011-02-03, 00:25:04,VALID,1003.13,VALID,0,VALID,86.9006,VALID,0,VALID,25.4948,VALID,8,VALID,2.1457,
2011-02-03, 00:26:04,VALID,1003.16,VALID,0,VALID,87.3507,VALID,0,VALID,25.4948,VALID,13,VALID,2.10352,
2011-02-03, 00:27:04,VALID,1003.15,VALID,0,VALID,87.5033,VALID,0,VALID,25.4948,VALID,8,VALID,1.62617,
2011-02-03, 00:28:04,VALID,1003.13,VALID,0,VALID,87.9,VALID,0,VALID,25.4753,VALID,9,VALID,1.21875,
2011-02-03, 00:29:04,VALID,1003.12,VALID,0,VALID,88.1517,VALID,0,VALID,25.4363,VALID,359,VALID,1.66484,
2011-02-03, 00:30:04,VALID,1003.13,VALID,0,VALID,88.7391,VALID,0,VALID,25.3974,VALID,5,VALID,1.56133,
2011-02-03, 00:31:04,VALID,1003.1,VALID,0,VALID,88.6247,VALID,0,VALID,25.3195,VALID,21,VALID,1.47227,
2011-02-03, 00:32:04,VALID,1003.11,VALID,0,VALID,89.0824,VALID,0,VALID,25.3195,VALID,31,VALID,1.53594,
2011-02-03, 00:33:04,VALID,1003.12,VALID,0,VALID,89.38,VALID,0,VALID,25.3,VALID,16,VALID,1.64805,
2011-02-03, 00:34:04,VALID,1003.09,VALID,0,VALID,89.7767,VALID,0,VALID,25.2806,VALID,20,VALID,0.914063,
2011-02-03, 00:35:04,VALID,1003.03,VALID,0,VALID,89.7919,VALID,0,VALID,25.2611,VALID,360,VALID,1.68281,
2011-02-03, 00:36:04,VALID,1003.09,VALID,0,VALID,89.5631,VALID,0,VALID,25.2806,VALID,22,VALID,2.25156,
2011-02-03, 00:37:04,VALID,1003.06,VALID,0,VALID,89.8148,VALID,0,VALID,25.3195,VALID,15,VALID,2.38477,
2011-02-03, 00:38:04,VALID,1003.02,VALID,0,VALID,89.5631,VALID,0,VALID,25.3195,VALID,9,VALID,1.82422,
2011-02-03, 00:39:04,VALID,1002.98,VALID,0,VALID,89.5707,VALID,0,VALID,25.339,VALID,7,VALID,2.40664,
2011-02-03, 00:40:04,VALID,1002.99,VALID,0,VALID,90.181,VALID,0,VALID,25.3176,VALID,10,VALID,1.04844,
2011-02-03, 00:41:04,VALID,1002.91,VALID,0,VALID,90.3488,VALID,0,VALID,25.3584,VALID,25,VALID,2.28125,
2011-02-03, 00:42:04,VALID,1002.9,VALID,0,VALID,90.0284,VALID,0,VALID,25.3779,VALID,10,VALID,1.55781,
2011-02-03, 00:43:04,VALID,1002.91,VALID,0,VALID,90.4938,VALID,0,VALID,25.3779,VALID,8,VALID,1.38047,
2011-02-03, 00:44:04,VALID,1002.87,VALID,0,VALID,90.1734,VALID,0,VALID,25.4169,VALID,27,VALID,1.97422,
2011-02-03, 00:45:04,VALID,1002.85,VALID,0,VALID,90.6921,VALID,0,VALID,25.4188,VALID,43,VALID,2.13203,
2011-02-03, 00:46:04,VALID,1002.86,VALID,0,VALID,90.3412,VALID,0,VALID,25.4363,VALID,33,VALID,1.44883,
2011-02-03, 00:47:04,VALID,1002.85,VALID,0,VALID,90.5396,VALID,0,VALID,25.4363,VALID,16,VALID,1.65586,
2011-02-03, 00:48:04,VALID,1002.82,VALID,0,VALID,90.7303,VALID,0,VALID,25.4169,VALID,19,VALID,1.15,
2011-02-03, 00:49:04,VALID,1002.82,VALID,0,VALID,91.0812,VALID,0,VALID,25.3974,VALID,41,VALID,0.792578,
2011-02-03, 00:50:04,VALID,1002.78,VALID,0,VALID,90.9134,VALID,0,VALID,25.4577,VALID,24,VALID,1.53203,
2011-02-03, 00:51:04,VALID,1002.78,VALID,0,VALID,91.2796,VALID,0,VALID,25.4558,VALID,18,VALID,1.46445,
2011-02-03, 00:52:04,VALID,1002.74,VALID,0,VALID,91.1575,VALID,0,VALID,25.4558,VALID,41,VALID,2.07578,
2011-02-03, 00:53:04,VALID,1002.69,VALID,0,VALID,91.4245,VALID,0,VALID,25.4558,VALID,6,VALID,0.892969,
2011-02-03, 00:54:04,VALID,1002.65,VALID,0,VALID,91.5466,VALID,0,VALID,25.4363,VALID,17,VALID,1.69727,
2011-02-03, 00:55:04,VALID,1002.64,VALID,0,VALID,91.7068,VALID,0,VALID,25.4734,VALID,37,VALID,1.36211,
2011-02-03, 00:56:04,VALID,1002.62,VALID,0,VALID,91.8975,VALID,0,VALID,25.3955,VALID,35,VALID,1.15703,
2011-02-03, 00:57:04,VALID,1002.6,VALID,0,VALID,92.2027,VALID,0,VALID,25.4149,VALID,66,VALID,1.95664,
2011-02-03, 00:58:04,VALID,1002.57,VALID,0,VALID,92.2332,VALID,0,VALID,25.3935,VALID,45,VALID,0.95,
2011-02-03, 00:59:04,VALID,1002.55,VALID,0,VALID,92.4468,VALID,0.100563,VALID,25.3546,VALID,28,VALID,1.2418,
2011-02-03, 01:00:04,VALID,1002.48,VALID,0,VALID,92.5383,VALID,0,VALID,25.337,VALID,26,VALID,1.13437,
2011-02-03, 01:01:04,VALID,1002.46,VALID,0,VALID,93.0342,VALID,0,VALID,25.337,VALID,27,VALID,1.77266,
2011-02-03, 01:02:04,VALID,1002.37,VALID,0,VALID,93.2936,VALID,0.100563,VALID,25.3176,VALID,356,VALID,1.94102,
2011-02-03, 01:03:04,VALID,1002.36,VALID,0,VALID,93.6598,VALID,0,VALID,25.2981,VALID,3,VALID,1.58906,
2011-02-03, 01:04:04,VALID,1002.36,VALID,0,VALID,93.7818,VALID,0,VALID,25.2592,VALID,27,VALID,3.23008,
2011-02-03, 01:05:04,VALID,1002.32,VALID,0,VALID,94.087,VALID,0,VALID,25.2592,VALID,5,VALID,2.01328,
2011-02-03, 01:06:04,VALID,1002.3,VALID,0,VALID,94.148,VALID,0,VALID,25.2378,VALID,16,VALID,1.72578,
2011-02-03, 01:07:04,VALID,1002.27,VALID,0,VALID,94.4761,VALID,0,VALID,25.2202,VALID,10,VALID,2.0957,
2011-02-03, 01:08:04,VALID,1002.26,VALID,0,VALID,94.8728,VALID,0.100563,VALID,25.1813,VALID,349,VALID,1.76602,
2011-02-03, 01:09:04,VALID,1002.29,VALID,0,VALID,95.1855,VALID,0,VALID,25.1813,VALID,19,VALID,2.1707,
2011-02-03, 01:10:04,VALID,1002.25,VALID,0,VALID,95.4678,VALID,0,VALID,25.1813,VALID,32,VALID,1.41094,
2011-02-03, 01:11:04,VALID,1002.27,VALID,0,VALID,95.4373,VALID,0,VALID,25.1832,VALID,7,VALID,2.13398,
2011-02-03, 01:12:04,VALID,1002.35,VALID,0,VALID,95.8035,VALID,0,VALID,25.1423,VALID,8,VALID,0.830859,
2011-02-03, 01:13:04,VALID,1002.35,VALID,0,VALID,96.7571,VALID,0,VALID,25.1423,VALID,43,VALID,1.35938,
2011-02-03, 01:14:04,VALID,1002.39,VALID,0,VALID,97.5963,VALID,0,VALID,25.1423,VALID,73,VALID,0.826953,
2011-02-03, 01:15:04,VALID,1002.41,VALID,0,VALID,99.2899,VALID,0,VALID,25.1229,VALID,47,VALID,1.15469,
2011-02-03, 01:16:04,VALID,1002.44,VALID,0,VALID,99.1449,VALID,0,VALID,25.1034,VALID,19,VALID,2.8543,
2011-02-03, 01:17:04,VALID,1002.43,VALID,0,VALID,100.137,VALID,0,VALID,25.1442,VALID,78,VALID,1.67539,
2011-02-03, 01:18:04,VALID,1002.42,VALID,0,VALID,104,VALID,0,VALID,25.0839,VALID,58,VALID,1.30938,
2011-02-03, 01:19:04,VALID,1002.39,VALID,0,INVALID,116.6,VALID,0,VALID,25.0663,VALID,48,VALID,1.66914,
2011-02-03, 01:20:04,VALID,1002.31,VALID,0,INVALID,119.995,VALID,0,VALID,25.006,VALID,20,VALID,1.33359,
2011-02-03, 01:21:04,VALID,1002.29,VALID,0,INVALID,134.261,VALID,0,VALID,25.006,VALID,26,VALID,1.08633,
2011-02-03, 01:22:04,VALID,1002.23,VALID,0,INVALID,141.027,VALID,0,VALID,24.9866,VALID,28,VALID,3.36172,
2011-02-03, 01:23:04,VALID,1002.27,VALID,0,INVALID,163.586,VALID,0,VALID,24.9885,VALID,35,VALID,1.85703,
2011-02-03, 01:24:04,VALID,1002.18,VALID,0,INVALID,163.601,VALID,0,VALID,24.969,VALID,32,VALID,2.20547,
2011-02-03, 01:25:04,VALID,1002.21,VALID,0,INVALID,163.617,VALID,0,VALID,24.9282,VALID,27,VALID,1.54023,
2011-02-03, 01:26:04,VALID,1002.17,VALID,0,INVALID,163.624,VALID,0,VALID,24.8697,VALID,26,VALID,2.06758,
2011-02-03, 01:27:04,VALID,1002.21,VALID,0,INVALID,163.624,VALID,0,VALID,24.8503,VALID,27,VALID,1.00078,
2011-02-03, 01:28:04,VALID,1002.2,VALID,0,INVALID,163.639,VALID,0,VALID,24.8132,VALID,13,VALID,1.44766,
2011-02-03, 01:29:04,VALID,1002.21,VALID,0,INVALID,163.639,VALID,0,VALID,24.7548,VALID,11,VALID,1.21758,
2011-02-03, 01:30:04,VALID,1002.21,VALID,0,INVALID,163.662,VALID,0,VALID,24.6964,VALID,27,VALID,1.33086,
2011-02-03, 01:31:04,VALID,1002.21,VALID,0,INVALID,163.647,VALID,0,VALID,24.6574,VALID,30,VALID,1.36484,
2011-02-03, 01:32:04,VALID,1002.22,VALID,0,INVALID,163.655,VALID,0,VALID,24.6166,VALID,12,VALID,1.5375,
2011-02-03, 01:33:04,VALID,1002.22,VALID,0,INVALID,163.647,VALID,0,VALID,24.5777,VALID,10,VALID,2.4707,
2011-02-03, 01:34:04,VALID,1002.22,VALID,0,INVALID,163.632,VALID,0,VALID,24.6166,VALID,20,VALID,1.48867,
2011-02-03, 01:35:04,VALID,1002.27,VALID,0,INVALID,163.67,VALID,0,VALID,24.6166,VALID,27,VALID,2.4,
2011-02-03, 01:36:04,VALID,1002.23,VALID,0,INVALID,163.662,VALID,0.100563,VALID,24.6166,VALID,29,VALID,2.56211,
2011-02-03, 01:37:04,VALID,1002.25,VALID,0,INVALID,163.639,VALID,0.100563,VALID,24.6361,VALID,9,VALID,1.55234,
2011-02-03, 01:38:04,VALID,1002.24,VALID,0,INVALID,163.647,VALID,0,VALID,24.6166,VALID,11,VALID,2.14883,
2011-02-03, 01:39:04,VALID,1002.24,VALID,0,INVALID,163.647,VALID,0,VALID,24.6574,VALID,13,VALID,2.30156,
2011-02-03, 01:40:04,VALID,1002.18,VALID,0,INVALID,163.624,VALID,0,VALID,24.6556,VALID,357,VALID,1.71641,
2011-02-03, 01:41:04,VALID,1002.21,VALID,0,INVALID,163.655,VALID,0,VALID,24.6166,VALID,2,VALID,1.39883,
2011-02-03, 01:42:04,VALID,1002.17,VALID,0,INVALID,163.647,VALID,0,VALID,24.6185,VALID,16,VALID,3.11797,
2011-02-03, 01:43:04,VALID,1002.21,VALID,0,INVALID,163.67,VALID,0,VALID,24.6185,VALID,349,VALID,1.57344,
2011-02-03, 01:44:04,VALID,1002.21,VALID,0,INVALID,163.647,VALID,0,VALID,24.5972,VALID,10,VALID,1.78047,
2011-02-03, 01:45:04,VALID,1002.22,VALID,0,INVALID,163.639,VALID,0,VALID,24.5777,VALID,15,VALID,2.25742,
2011-02-03, 01:46:04,VALID,1002.24,VALID,0,INVALID,163.655,VALID,0,VALID,24.599,VALID,351,VALID,1.51797,
2011-02-03, 01:47:04,VALID,1002.25,VALID,0,INVALID,163.662,VALID,0,VALID,24.5582,VALID,1,VALID,1.17422,
2011-02-03, 01:48:04,VALID,1002.29,VALID,0,INVALID,163.662,VALID,0,VALID,24.5582,VALID,351,VALID,2.01758,
2011-02-03, 01:49:04,VALID,1002.3,VALID,0,INVALID,163.655,VALID,0,VALID,24.5388,VALID,359,VALID,1.10781,
2011-02-03, 01:50:04,VALID,1002.32,VALID,0,INVALID,163.647,VALID,0.100563,VALID,24.5582,VALID,3,VALID,1.31602,
2011-02-03, 01:51:04,VALID,1002.34,VALID,0,INVALID,163.655,VALID,0,VALID,24.5388,VALID,353,VALID,1.8957,
2011-02-03, 01:52:04,VALID,1002.33,VALID,0,INVALID,163.685,VALID,0,VALID,24.4998,VALID,1,VALID,2.51445,
2011-02-03, 01:53:04,VALID,1002.33,VALID,0,INVALID,163.647,VALID,0,VALID,24.4998,VALID,20,VALID,1.30547,
2011-02-03, 01:54:04,VALID,1002.31,VALID,0,INVALID,163.647,VALID,0,VALID,24.4998,VALID,17,VALID,2.16367,
2011-02-03, 01:55:04,VALID,1002.33,VALID,0,INVALID,163.67,VALID,0,VALID,24.4998,VALID,16,VALID,2.41992,
2011-02-03, 01:56:04,VALID,1002.35,VALID,0,INVALID,163.647,VALID,0,VALID,24.5388,VALID,355,VALID,1.89258,
2011-02-03, 01:57:04,VALID,1002.33,VALID,0,INVALID,163.655,VALID,0,VALID,24.5193,VALID,356,VALID,1.34961,
2011-02-03, 01:58:04,VALID,1002.35,VALID,0,INVALID,163.632,VALID,0,VALID,24.4998,VALID,1,VALID,1.30078,
2011-02-03, 01:59:04,VALID,1002.28,VALID,0,INVALID,163.639,VALID,0,VALID,24.459,VALID,14,VALID,1.69844,
2011-02-03, 02:00:04,VALID,1002.33,VALID,0.5,INVALID,163.678,VALID,0,VALID,24.4609,VALID,359,VALID,1.3832,
2011-02-03, 02:01:04,VALID,1002.29,VALID,0,INVALID,163.662,VALID,0,VALID,24.5017,VALID,349,VALID,1.57383,
2011-02-03, 02:02:04,VALID,1002.3,VALID,0,INVALID,163.647,VALID,0,VALID,24.5017,VALID,360,VALID,1.28594,
2011-02-03, 02:03:04,VALID,1002.3,VALID,0,INVALID,163.67,VALID,0,VALID,24.4804,VALID,354,VALID,1.47773,
2011-02-03, 02:04:04,VALID,1002.3,VALID,0,INVALID,163.639,VALID,0,VALID,24.4609,VALID,27,VALID,1.27148,
2011-02-03, 02:05:04,VALID,1002.33,VALID,0,INVALID,163.662,VALID,0,VALID,24.4414,VALID,1,VALID,1.10977,
2011-02-03, 02:06:04,VALID,1002.32,VALID,0,INVALID,163.662,VALID,0,VALID,24.4201,VALID,1,VALID,1.73359,
2011-02-03, 02:07:04,VALID,1002.37,VALID,0,INVALID,163.685,VALID,0,VALID,24.422,VALID,19,VALID,1.37305,
2011-02-03, 02:08:04,VALID,1002.35,VALID,0,INVALID,163.639,VALID,0,VALID,24.422,VALID,9,VALID,0.977344,
2011-02-03, 02:09:04,VALID,1002.34,VALID,0,INVALID,163.662,VALID,0,VALID,24.4238,VALID,16,VALID,1.42461,
2011-02-03, 02:10:04,VALID,1002.32,VALID,0,INVALID,163.662,VALID,0,VALID,24.3636,VALID,13,VALID,1.23984,
2011-02-03, 02:11:04,VALID,1002.32,VALID,0,INVALID,163.647,VALID,0,VALID,24.4025,VALID,25,VALID,0.933594,
2011-02-03, 02:12:04,VALID,1002.31,VALID,0,INVALID,163.678,VALID,0,VALID,24.383,VALID,33,VALID,1.14258,
2011-02-03, 02:13:04,VALID,1002.29,VALID,0,INVALID,163.685,VALID,0.100563,VALID,24.3636,VALID,34,VALID,0.917578,
2011-02-03, 02:14:04,VALID,1002.28,VALID,0,INVALID,163.685,VALID,0,VALID,24.3441,VALID,19,VALID,1.03867,
2011-02-03, 02:15:04,VALID,1002.24,VALID,0,INVALID,163.67,VALID,0.100563,VALID,24.3636,VALID,56,VALID,0.603125,
2011-02-03, 02:16:04,VALID,1002.22,VALID,0,INVALID,163.693,VALID,0.100563,VALID,24.3654,VALID,31,VALID,1.02578,
2011-02-03, 02:17:04,VALID,1002.17,VALID,0,INVALID,163.67,VALID,0,VALID,24.3636,VALID,43,VALID,1.19844,
2011-02-03, 02:18:04,VALID,1002.16,VALID,0,INVALID,163.67,VALID,0.100563,VALID,24.4025,VALID,25,VALID,0.876562,
2011-02-03, 02:19:04,VALID,1002.15,VALID,0,INVALID,163.639,VALID,0,VALID,24.4414,VALID,52,VALID,0.657812,
2011-02-03, 02:20:04,VALID,1002.12,VALID,0,INVALID,163.639,VALID,0,VALID,24.5017,VALID,26,VALID,0.805859,
2011-02-03, 02:21:04,VALID,1002.07,VALID,0,INVALID,163.655,VALID,0,VALID,24.5388,VALID,42,VALID,1.15742,
2011-02-03, 02:22:04,VALID,1002.05,VALID,0,INVALID,163.655,VALID,0,VALID,24.5972,VALID,28,VALID,1.24648,
2011-02-03, 02:23:04,VALID,1002.02,VALID,0,INVALID,163.662,VALID,0,VALID,24.5777,VALID,11,VALID,1.41211,
2011-02-03, 02:24:04,VALID,1002.05,VALID,0,INVALID,163.647,VALID,0,VALID,24.6166,VALID,25,VALID,1.44023,
2011-02-03, 02:25:04,VALID,1002.04,VALID,0,INVALID,163.647,VALID,0,VALID,24.6769,VALID,359,VALID,0.751953,
2011-02-03, 02:26:04,VALID,1002.08,VALID,0,INVALID,163.662,VALID,0,VALID,24.5953,VALID,352,VALID,0.760938,
2011-02-03, 02:27:04,VALID,1002.11,VALID,0,INVALID,163.639,VALID,0,VALID,24.6166,VALID,12,VALID,0.922656,
2011-02-03, 02:28:04,VALID,1002.09,VALID,0,INVALID,163.647,VALID,0.100563,VALID,24.5972,VALID,4,VALID,1.05508,
2011-02-03, 02:29:04,VALID,1002.08,VALID,0,INVALID,163.67,VALID,0,VALID,24.6556,VALID,90,VALID,0.511328,
2011-02-03, 02:30:04,VALID,1002.09,VALID,0,INVALID,163.655,VALID,0,VALID,24.6166,VALID,17,VALID,1.72109,
2011-02-03, 02:31:04,VALID,1002.07,VALID,0,INVALID,163.655,VALID,0,VALID,24.6361,VALID,47,VALID,0.932031,
2011-02-03, 02:32:04,VALID,1002.11,VALID,0,INVALID,163.639,VALID,0,VALID,24.638,VALID,60,VALID,1.36797,
2011-02-03, 02:33:04,VALID,1002.11,VALID,0,INVALID,163.655,VALID,0,VALID,24.5972,VALID,36,VALID,1.60234,
2011-02-03, 02:34:04,VALID,1002.13,VALID,0,INVALID,163.647,VALID,0,VALID,24.5953,VALID,352,VALID,0.573047,
2011-02-03, 02:35:04,VALID,1002.12,VALID,0,INVALID,163.655,VALID,0,VALID,24.5972,VALID,25,VALID,1.81094,
2011-02-03, 02:36:04,VALID,1002.2,VALID,0,INVALID,163.639,VALID,0,VALID,24.5777,VALID,35,VALID,1.1918,
2011-02-03, 02:37:04,VALID,1002.21,VALID,0,INVALID,163.617,VALID,0,VALID,24.5564,VALID,11,VALID,0.970312,
2011-02-03, 02:38:04,VALID,1002.26,VALID,0,INVALID,163.662,VALID,0,VALID,24.5582,VALID,29,VALID,1.23359,
2011-02-03, 02:39:04,VALID,1002.26,VALID,0,INVALID,163.647,VALID,0,VALID,24.5388,VALID,14,VALID,1.10898,
2011-02-03, 02:40:04,VALID,1002.22,VALID,0,INVALID,163.639,VALID,0,VALID,24.498,VALID,29,VALID,1.65937,
2011-02-03, 02:41:04,VALID,1002.24,VALID,0,INVALID,163.662,VALID,0,VALID,24.459,VALID,37,VALID,1.58594,
2011-02-03, 02:42:04,VALID,1002.22,VALID,0,INVALID,163.647,VALID,0,VALID,24.5193,VALID,16,VALID,0.798437,
2011-02-03, 02:43:04,VALID,1002.16,VALID,0,INVALID,163.662,VALID,0.100563,VALID,24.5193,VALID,25,VALID,1.09727,
2011-02-03, 02:44:04,VALID,1002.15,VALID,0,INVALID,163.662,VALID,0,VALID,24.5193,VALID,11,VALID,1.65469,
2011-02-03, 02:45:04,VALID,1002.11,VALID,0,INVALID,163.647,VALID,0,VALID,24.5388,VALID,3,VALID,1.18164,
2011-02-03, 02:46:04,VALID,1002.1,VALID,0,INVALID,163.632,VALID,0,VALID,24.5193,VALID,42,VALID,1.76992,
2011-02-03, 02:47:04,VALID,1002.09,VALID,0,INVALID,163.609,VALID,0,VALID,24.5193,VALID,5,VALID,0.757813,
2011-02-03, 02:48:04,VALID,1002.07,VALID,0,INVALID,161.793,VALID,0,VALID,24.4998,VALID,32,VALID,1.20938,
2011-02-03, 02:49:04,VALID,1002.03,VALID,0,INVALID,163.586,VALID,0,VALID,24.459,VALID,4,VALID,0.868359,
2011-02-03, 02:50:04,VALID,1002.06,VALID,0,INVALID,152.723,VALID,0.100563,VALID,24.459,VALID,350,VALID,0.664453,
2011-02-03, 02:51:04,VALID,1002.01,VALID,0,INVALID,109.497,VALID,0,VALID,24.4804,VALID,28,VALID,1.43281,
2011-02-03, 02:52:04,VALID,1002.05,VALID,0,VALID,104,VALID,0,VALID,24.5388,VALID,10,VALID,0.426562,
2011-02-03, 02:53:04,VALID,1002.07,VALID,0,VALID,104,VALID,0,VALID,24.5582,VALID,41,VALID,0.280469,
2011-02-03, 02:54:04,VALID,1002.06,VALID,0,VALID,104,VALID,0,VALID,24.5582,VALID,59,VALID,0,
2011-02-03, 02:55:04,VALID,1002.11,VALID,0,VALID,104,VALID,0,VALID,24.5582,VALID,59,VALID,0.0128906,
2011-02-03, 02:56:04,VALID,1002.11,VALID,0,INVALID,109.543,VALID,0,VALID,24.5193,VALID,54,VALID,0.0535156,
2011-02-03, 02:57:04,VALID,1002.13,VALID,0,INVALID,110.161,VALID,0,VALID,24.4785,VALID,74,VALID,0.410156,
2011-02-03, 02:58:04,VALID,1002.14,VALID,0,INVALID,112.816,VALID,0,VALID,24.4998,VALID,100,VALID,0.803906,
2011-02-03, 02:59:04,VALID,1002.19,VALID,0,INVALID,143.186,VALID,0.100563,VALID,24.459,VALID,135,VALID,0.953516,
2011-02-03, 03:00:04,VALID,1002.22,VALID,0,INVALID,163.632,VALID,0.100563,VALID,24.422,VALID,111,VALID,0.864844,
2011-02-03, 03:01:04,VALID,1002.24,VALID,0,INVALID,163.655,VALID,0,VALID,24.3636,VALID,106,VALID,0.789844,
2011-02-03, 03:02:04,VALID,1002.23,VALID,0,INVALID,163.632,VALID,0,VALID,24.3228,VALID,129,VALID,1.57109,
2011-02-03, 03:03:04,VALID,1002.25,VALID,0,INVALID,163.67,VALID,0,VALID,24.3636,VALID,120,VALID,0.767187,
2011-02-03, 03:04:04,VALID,1002.3,VALID,0,INVALID,163.67,VALID,0,VALID,24.3441,VALID,133,VALID,1.56953,
2011-02-03, 03:05:04,VALID,1002.35,VALID,0,INVALID,163.662,VALID,0,VALID,24.2857,VALID,128,VALID,1.30039,
2011-02-03, 03:06:04,VALID,1002.36,VALID,0,INVALID,163.655,VALID,0,VALID,24.2449,VALID,126,VALID,0.783594,
2011-02-03, 03:07:04,VALID,1002.4,VALID,0,INVALID,163.701,VALID,0,VALID,24.2468,VALID,105,VALID,1.10664,
2011-02-03, 03:08:04,VALID,1002.42,VALID,0,INVALID,163.701,VALID,0.100563,VALID,24.2078,VALID,107,VALID,1.47539,
2011-02-03, 03:09:04,VALID,1002.42,VALID,0,INVALID,163.701,VALID,0,VALID,24.2273,VALID,95,VALID,0.841797,
2011-02-03, 03:10:04,VALID,1002.48,VALID,0,INVALID,163.701,VALID,0,VALID,24.1884,VALID,103,VALID,1.46758,
2011-02-03, 03:11:04,VALID,1002.47,VALID,0,INVALID,163.678,VALID,0,VALID,24.2449,VALID,124,VALID,0.938672,
2011-02-03, 03:12:04,VALID,1002.48,VALID,0,INVALID,163.693,VALID,0,VALID,24.2857,VALID,129,VALID,1.20078,
2011-02-03, 03:13:04,VALID,1002.52,VALID,0,INVALID,163.67,VALID,0,VALID,24.2839,VALID,97,VALID,0.621094,
2011-02-03, 03:14:04,VALID,1002.54,VALID,0,INVALID,163.647,VALID,0,VALID,24.2644,VALID,123,VALID,0.643359,
2011-02-03, 03:15:04,VALID,1002.56,VALID,0,INVALID,163.67,VALID,0,VALID,24.2857,VALID,118,VALID,0.380469,
2011-02-03, 03:16:04,VALID,1002.59,VALID,0,INVALID,163.678,VALID,0.100563,VALID,24.2449,VALID,119,VALID,0.429297,
2011-02-03, 03:17:04,VALID,1002.62,VALID,0,INVALID,163.655,VALID,0,VALID,24.2662,VALID,119,VALID,0.0261719,
2011-02-03, 03:18:04,VALID,1002.6,VALID,0.5,INVALID,163.685,VALID,0,VALID,24.2662,VALID,75,VALID,0.341797,
2011-02-03, 03:19:04,VALID,1002.62,VALID,0,INVALID,163.693,VALID,0,VALID,24.2468,VALID,64,VALID,0.0253906,
2011-02-03, 03:20:04,VALID,1002.66,VALID,0,INVALID,163.685,VALID,0.100563,VALID,24.2468,VALID,38,VALID,0.267188,
2011-02-03, 03:21:04,VALID,1002.65,VALID,0,INVALID,163.693,VALID,0.100563,VALID,24.1884,VALID,10,VALID,0.449219,
2011-02-03, 03:22:04,VALID,1002.65,VALID,0,INVALID,163.693,VALID,0,VALID,24.1689,VALID,10,VALID,0.355859,
2011-02-03, 03:23:04,VALID,1002.66,VALID,0,INVALID,163.701,VALID,0,VALID,24.1087,VALID,10,VALID,0.273047,
2011-02-03, 03:24:04,VALID,1002.64,VALID,0,INVALID,163.693,VALID,0,VALID,24.1318,VALID,10,VALID,0.24375,
2011-02-03, 03:25:04,VALID,1002.67,VALID,0,INVALID,163.723,VALID,0,VALID,24.13,VALID,10,VALID,0,
2011-02-03, 03:26:04,VALID,1002.64,VALID,0,INVALID,163.716,VALID,0,VALID,24.0503,VALID,10,VALID,0,
2011-02-03, 03:27:04,VALID,1002.62,VALID,0,INVALID,163.701,VALID,0,VALID,24.0716,VALID,10,VALID,0.1625,
2011-02-03, 03:28:04,VALID,1002.63,VALID,0,INVALID,163.708,VALID,0,VALID,24.0734,VALID,10,VALID,0.152344,
2011-02-03, 03:29:04,VALID,1002.61,VALID,0.5,INVALID,163.685,VALID,0,VALID,24.0326,VALID,10,VALID,0.456641,
2011-02-03, 03:30:04,VALID,1002.63,VALID,0,INVALID,163.723,VALID,0,VALID,24.0114,VALID,133,VALID,0.671094,
2011-02-03, 03:31:04,VALID,1002.61,VALID,0,INVALID,163.685,VALID,0,VALID,24.0521,VALID,147,VALID,0.675781,
2011-02-03, 03:32:04,VALID,1002.59,VALID,0,INVALID,163.708,VALID,0,VALID,24.0521,VALID,147,VALID,0.682422,
2011-02-03, 03:33:04,VALID,1002.59,VALID,0,INVALID,163.723,VALID,0.100563,VALID,24.0345,VALID,157,VALID,0.704687,
2011-02-03, 03:34:04,VALID,1002.59,VALID,0,INVALID,163.678,VALID,0,VALID,23.9937,VALID,159,VALID,0.510156,
2011-02-03, 03:35:04,VALID,1002.6,VALID,0,INVALID,163.723,VALID,0.100563,VALID,23.9742,VALID,159,VALID,0.517578,
2011-02-03, 03:36:04,VALID,1002.59,VALID,0,INVALID,163.701,VALID,0,VALID,23.9742,VALID,159,VALID,0.364062,
2011-02-03, 03:37:04,VALID,1002.63,VALID,0,INVALID,163.746,VALID,0,VALID,23.9548,VALID,159,VALID,0.357031,
2011-02-03, 03:38:04,VALID,1002.63,VALID,0,INVALID,163.731,VALID,0.100563,VALID,23.914,VALID,159,VALID,0.270312,
2011-02-03, 03:39:04,VALID,1002.63,VALID,0,INVALID,163.723,VALID,0.100563,VALID,23.8946,VALID,159,VALID,0.0347656,
2011-02-03, 03:40:04,VALID,1002.65,VALID,0.5,INVALID,163.716,VALID,0,VALID,23.8946,VALID,159,VALID,0,
2011-02-03, 03:41:04,VALID,1002.69,VALID,0,INVALID,163.716,VALID,0,VALID,23.8982,VALID,159,VALID,0,
2011-02-03, 03:42:04,VALID,1002.69,VALID,0,INVALID,163.693,VALID,0,VALID,23.9371,VALID,159,VALID,0.0777344,
2011-02-03, 03:43:04,VALID,1002.7,VALID,0,INVALID,163.701,VALID,0,VALID,23.9177,VALID,159,VALID,0.0320312,